This is the latest recevied weather packets stored in our database for station/object VK6WB. If no packets are shown the sender has not sent any weather packets the latest 10 day(s).
| Time | Temp. | Humidity | Pressure | Rain* | Wind** | Luminosity | Snow |
|---|---|---|---|---|---|---|---|
| 1778031604 | 17.78° C | 22% | 1025.5 hPa | 0 mm | - | 65 W/m² | - |
| 1778031004 | 17.22° C | 23% | 1025.5 hPa | 0 mm | - | 65 W/m² | - |
| 1778030404 | 16.67° C | 23% | 1025.5 hPa | 0 mm | - | 65 W/m² | - |
| 1778029804 | 25.56° C | 24% | 1025.5 hPa | 0 mm | - | 65 W/m² | - |
| 1778029204 | 16.11° C | 23% | 1025.4 hPa | 0 mm | - | 65 W/m² | - |
| 1778028604 | 15.56° C | 24% | 1025.4 hPa | 0 mm | - | 65 W/m² | - |
| 1778028004 | 15.56° C | 23% | 1025.2 hPa | 0 mm | - | 65 W/m² | - |
| 1778027404 | 15° C | 25% | 1025.2 hPa | 0 mm | - | 65 W/m² | - |
| 1778026804 | 15° C | 25% | 1025.1 hPa | 0 mm | - | 65 W/m² | - |
| 1778026204 | 14.44° C | 26% | 1025 hPa | 0 mm | - | 65 W/m² | - |
| 1778025604 | 13.89° C | 28% | 1024.9 hPa | 0 mm | - | 65 W/m² | - |
| 1778025004 | 13.33° C | 29% | 1024.8 hPa | 0 mm | - | 65 W/m² | - |
| 1778024405 | 13.33° C | 31% | 1024.6 hPa | 0 mm | - | 65 W/m² | - |
| 1778023804 | 12.78° C | 34% | 1024.5 hPa | 0 mm | - | 65 W/m² | - |
| 1778023204 | 12.22° C | 39% | 1024.4 hPa | 0 mm | - | 65 W/m² | - |
| 1778022604 | 12.22° C | 41% | 1024.1 hPa | 0 mm | - | 65 W/m² | - |
| 1778022004 | 11.67° C | 44% | 1024 hPa | 0 mm | - | 65 W/m² | - |
| 1778021404 | 11.67° C | 45% | 1023.9 hPa | 0 mm | - | 65 W/m² | - |
| 1778020804 | 12.22° C | 46% | 1023.9 hPa | 0 mm | - | 65 W/m² | - |
| 1778020204 | 12.22° C | 46% | 1023.8 hPa | 0 mm | - | 65 W/m² | - |
| 1778019603 | 12.22° C | 46% | 1023.9 hPa | 0 mm | - | 65 W/m² | - |
| 1778019004 | 12.78° C | 46% | 1023.6 hPa | 0 mm | - | 65 W/m² | - |
| 1778018403 | 12.78° C | 47% | 1023.6 hPa | 0 mm | - | 65 W/m² | - |
| 1778017804 | 12.78° C | 47% | 1023.5 hPa | 0 mm | - | 65 W/m² | - |
| 1778017204 | 12.78° C | 48% | 1023.4 hPa | 0 mm | - | 65 W/m² | - |
* Rain latest hour (hover to see other rain measurements)
** Current wind speed in m/s (hover to see current wind gust speed)